Location: C�mpuri de-Sus
(45.9500°N, 22.5500°E)
Time: 11:48:24
(UTC+00:00)

Cosmos 2228 - Pass Details

Date: 24 October 2021
Orbit: 587 x 619 km, 82.5° (Epoch: 06 December)

Event Time Altitude Azimuth Distance (km) Brightness Sun altitude
Rises 16:41:02 0° 156° (SSE) 2,874 6.3 -13.3°
Reaches altitude 10° 16:43:32 10° 143° (SE) 1,977 5.3 -13.7°
Maximum altitude 16:47:07 25° 88° (E) 1,257 4.0 -14.3°
Drops below altitude 10° 16:50:43 10° 33° (NNE) 1,994 5.3 -15.0°
Sets 16:53:15 0° 21° (NNE) 2,905 6.3 -15.4°
